STARLINK-30249, 57618

Orbit data source: Space-Track

STARLINK-30249, 57618 is a payload satellite owned by SpaceX/Seattle (US) in LEO that was launched on Fri, 11 Aug 2023 UTC via an FALCON 9 launch vehicle from the Air Force Eastern Test Range (AFETR). Payload-class satellites include a variety of spacecraft equipped with specific instruments for various scientific and technological missions. These include communications satellites like Starlink; space stations such as the ISS; scientific satellites like the Hubble; Earth observation satellites from companies like Planet Labs, Umbra, and HawkEye 360; GPS; miniature CubeSats for education and research; and military/defense satellites.

Loading next visibility...
Identifier
57618, 2023-119S
Orbit
LEO
Country
Flag of USUS
Related business
Manufacturer
SpaceX/Seattle
Mission
Operational Commercial Communications
Bus & Motor
STARLINK V2M, Unknown motor
Mass
730 kg wet, ~700 kg dry
Launch date (UTC)
2023-08-11 (3 years ago)
Launch vehicle
FALCON 9
Launch site
Air Force Eastern Test Range (AFETR)
Object type
Payload
Rocket body
Debris
Shape & HBR
Box + 2 Pan, 17.7 m
Radar Cross Section
33.884 m², Large (>1 m²)

Expand to show TLE details & history
Last TLE update: 11 hours ago

TLE from 11 hours ago
0 STARLINK-30249
1 57618U 23119S   26094.92456234 -.00000148  00000-0  41649-5 0  9992
2 57618  43.0011 292.9916 0000872 270.7102  89.3650 15.26742112147107
Epoch: 2026-04-04T22:11Z
TLE epoch observation values (Epoch: 2026-04-04T22:11:22.186Z)
Latitude
0.00003°
Longitude
126.91184°
Altitude
485.328 km
Speed
7.624 km/s
True Right ascension
19h 31m 57s
True Declination
0° 00' 00"
Sunlit
Object was in daylight at epoch
Visualization orbit readout
Latitude
Unknown
Longitude
Unknown
Altitude
Unknown
Speed
Unknown
Apparent Right ascension
Unknown
Apparent Declination
Unknown
Sunlit
N/A
Visualization observer readout
Local Sidereal Time
15:26:18
Azimuth
Unknown
Elevation
Unknown
Doppler factor
Unknown
Orbital elements
Apogee altitude
488.102 km
Perigee altitude
486.905 km
Semi-major axis
6,865.64 km
Eccentricity
0.00009
Inclination
43.0011°
RAAN
292.9916°
Arg. of periapsis
270.7102°
True anomaly
89.37499°
Mean anomaly
89.365°
Eccentric anomaly
89.37°
Mean motion
3.81524 °/min
Orbital period
94.36 mins
BSTAR
0.0000041649
Loading maneuver chart data...
Computing Atmospheric mass density...
Loading historical data...
Loading historical data...
Loading historical data...
Loading historical data...
Loading historical data...
Loading historical data...
Loading historical data...

Documentation

Showing up to 5 results
|